245P/WISE (2018)

Japanese version
Home page
Updated on September 23, 2018

---------------------------------------------------------------------

* Profile

* Orbital Elements

Epoch 2018 Feb. 11.0 TT = JDT 2458160.5
T 2018 Feb. 8.65101 TT                                  MPCW
q   2.1899379            (2000.0)            P               Q
n   0.12141842     Peri.  316.67509     +0.09035134     +0.96451107
a   4.0390541      Node   316.67828     -0.78622268     -0.08383495
e   0.4578092      Incl.   21.19949     -0.61130233     +0.25037989
P   8.12
From 89 observations 2002 Aug. 27-2018 Sept. 12, mean residual 0".6.

* Magnitudes Graph

        m1 = 14.7 + 5 log d + 10.0 log r

---------------------------------------------------------------------

The orbital elements are published on M.P.E.C. 2018-S50.
The magnitudes graphs are made with Comet for Windows.

---------------------------------------------------------------------

Copyright(C) Seiichi Yoshida (comet@aerith.net). All rights reserved.